GW6666 Weather Reports


time (UTC)temp
C
wind
direction
speed
KPH
gust
KPH
rain 1hr
cm
rain 24hr
cm
rain mn
cm
humidity
%
barometer
mb
20260510095020 10 323 4.8 4.8 0.00 0.03 0.03 99 1012.5
20260510094515 10 319 3.2 4.8 0.00 0.03 0.03 99 1012.3
20260510094011 10 342 8.0 8.0 0.00 0.03 0.03 99 1012.3
20260510093507 10 22 3.2 4.8 0.00 0.03 0.03 99 1012.2
20260510093004 10 30 4.8 6.4 0.05 0.03 0.03 99 1012.2
20260510092501 10 40 3.2 6.4 0.05 0.03 0.03 99 1012.4
20260510092000 10 357 3.2 4.8 0.05 0.00 0.00 99 1012.5
20260510091457 10 94 3.2 3.2 0.05 0.00 0.00 99 1012.4
20260510090953 10 116 1.6 3.2 0.00 0.00 0.00 99 1012.3
20260510090451 10 123 0.0 8.0 0.00 0.00 0.00 99 1012.2
20260510085946 10 101 3.2 4.8 0.00 0.00 0.00 99 1012.2
20260510085441 10 134 0.0 3.2 0.00 0.00 0.00 99 1012.2
20260510084936 10 102 3.2 6.4 0.00 0.00 0.00 99 1012.2
20260510084434 10 97 4.8 4.8 0.00 0.00 0.00 99 1012.4
20260510083930 10 111 4.8 6.4 0.00 0.00 0.00 99 1012.2
20260510083427 10 97 3.2 3.2 0.00 0.00 0.00 99 1012.3
20260510082922 10 168 3.2 8.0 0.00 0.00 0.00 99 1012.2
20260510082421 10 102 3.2 4.8 0.00 0.00 0.00 99 1012.1
20260510081919 10 129 3.2 4.8 0.00 0.00 0.00 99 1012.2
20260510081415 10 128 3.2 6.4 0.00 0.00 0.00 99 1012.6
20260510080912 10 113 3.2 3.2 0.00 0.00 0.00 99 1012.3
20260510080411 10 229 1.6 1.6 0.00 0.00 0.00 99 1012.5
20260510075908 10 130 3.2 4.8 0.00 0.00 0.00 99 1012.6
20260510075406 10 145 3.2 3.2 0.00 0.00 0.00 99 1012.6
20260510074902 10 132 1.6 3.2 0.00 0.00 0.00 99 1012.4
20260510074359 10 98 1.6 1.6 0.00 0.00 0.00 99 1012.5
20260510073855 10 154 1.6 3.2 0.00 0.00 0.00 99 1012.7
20260510073351 10 145 0.0 1.6 0.00 0.00 0.00 99 1012.9
20260510072847 10 40 0.0 3.2 0.00 0.00 0.00 99 1012.7
20260510072345 10 140 3.2 4.8 0.00 0.00 0.00 99 1012.6
20260510071841 10 96 1.6 3.2 0.00 0.00 0.00 99 1012.5
20260510071337 9 343 3.2 4.8 0.00 0.00 0.00 99 1012.8
20260510070836 9 314 3.2 6.4 0.00 0.00 0.00 99 1012.9
20260510070333 9 328 0.0 11.3 0.00 0.00 0.00 99 1012.8
20260510065833 9 332 4.8 8.0 0.00 0.00 0.00 99 1012.5
20260510065330 9 94 4.8 6.4 0.00 0.00 0.00 99 1012.0
20260510064826 8 117 6.4 6.4 0.00 0.00 0.00 99 1012.2
20260510064324 8 114 4.8 4.8 0.00 0.00 0.00 99 1012.2
20260510063820 8 108 4.8 6.4 0.00 0.00 0.00 99 1012.1
20260510063317 8 76 0.0 3.2 0.00 0.00 0.00 99 1012.2
20260510062813 8 136 1.6 3.2 0.00 0.00 0.00 99 1012.3
20260510062309 8 159 0.0 0.0 0.00 0.00 0.00 99 1012.3
20260510061805 8 112 3.2 4.8 0.00 0.00 0.00 99 1012.4
20260510061303 8 170 1.6 3.2 0.00 0.00 0.00 99 1012.5
20260510060758 8 131 3.2 4.8 0.00 0.00 0.00 99 1012.4
20260510060255 8 116 3.2 3.2 0.00 0.00 0.00 98 1012.5
20260510055752 9 83 3.2 4.8 0.00 0.00 0.00 99 1012.6
20260510055250 9 88 3.2 3.2 0.00 0.00 0.00 99 1012.5
20260510054749 9 11 3.2 4.8 0.00 0.00 0.00 99 1012.7
20260510054246 9 343 3.2 9.7 0.00 0.00 0.00 99 1012.8
20260510053745 8 326 4.8 6.4 0.00 0.00 0.00 99 1012.5
20260510053242 8 23 1.6 8.0 0.00 0.00 0.00 99 1012.3
20260510052738 8 4 3.2 3.2 0.00 0.00 0.00 98 1012.2
20260510052234 8 12 3.2 3.2 0.00 0.00 0.00 98 1012.1
20260510051730 8 341 0.0 1.6 0.00 0.00 0.00 98 1012.1
20260510051227 8 14 1.6 1.6 0.00 0.00 0.00 98 1012.1
20260510050723 8 128 0.0 0.0 0.00 0.00 0.00 98 1011.9
20260510050221 8 115 0.0 0.0 0.00 0.00 0.00 98 1012.0
20260510045717 8 205 0.0 1.6 0.00 0.00 0.00 98 1012.0
20260510045214 8 30 1.6 3.2 0.00 0.00 0.00 98 1012.2
20260510044710 8 269 0.0 0.0 0.00 0.00 0.00 98 1012.2
20260510044209 8 237 0.0 3.2 0.00 0.00 0.00 98 1012.0
20260510043703 8 224 0.0 1.6 0.00 0.00 0.00 98 1012.4
20260510043200 8 159 0.0 0.0 0.00 0.00 0.00 98 1012.1
20260510042657 9 113 0.0 3.2 0.00 0.00 0.00 98 1012.1
20260510042154 9 173 1.6 3.2 0.00 0.00 0.00 98 1012.3
20260510041651 9 13 0.0 1.6 0.00 0.00 0.00 98 1012.2
20260510041148 10 30 0.0 1.6 0.00 0.00 0.00 98 1012.2
20260510040645 9 234 0.0 0.0 0.00 0.00 0.00 98 1012.1
20260510040142 9 224 0.0 0.0 0.00 0.00 0.00 97 1012.1
20260510035637 10 64 0.0 1.6 0.00 0.56 0.56 98 1012.2
20260510035132 10 44 0.0 0.0 0.00 0.56 0.56 98 1012.2
20260510034630 10 222 0.0 1.6 0.00 0.56 0.56 98 1012.3
20260510034127 10 236 0.0 1.6 0.00 0.56 0.56 97 1012.2
20260510033623 10 113 0.0 0.0 0.00 0.56 0.56 97 1012.2
20260510033121 10 132 0.0 3.2 0.00 0.56 0.56 97 1012.0
20260510032617 10 124 0.0 3.2 0.00 0.56 0.56 97 1012.0
20260510032112 10 172 0.0 1.6 0.00 0.56 0.56 97 1011.8
20260510031607 10 209 0.0 3.2 0.00 0.56 0.56 97 1011.9
20260510031104 10 236 0.0 3.2 0.00 0.56 0.56 97 1012.1
20260510030559 10 328 1.6 3.2 0.00 0.56 0.56 97 1011.7
20260510030057 10 324 0.0 3.2 0.00 0.56 0.56 97 1012.0
20260510025554 10 335 0.0 1.6 0.00 0.56 0.56 97 1012.1
20260510025052 10 224 1.6 1.6 0.00 0.56 0.56 97 1012.1
20260510024548 11 144 0.0 3.2 0.00 0.56 0.56 97 1011.9
20260510024044 11 201 0.0 1.6 0.00 0.56 0.56 97 1011.9
20260510023540 11 143 0.0 4.8 0.00 0.56 0.56 97 1012.0
20260510023039 11 129 4.8 4.8 0.00 0.56 0.56 97 1011.9
20260510022538 11 72 1.6 3.2 0.00 0.56 0.56 96 1011.9
20260510022037 11 89 0.0 0.0 0.00 0.56 0.56 96 1011.7
20260510021535 11 44 0.0 1.6 0.00 0.56 0.56 96 1011.9
20260510021032 11 108 1.6 3.2 0.00 0.56 0.56 96 1011.9
20260510020526 11 142 1.6 3.2 0.00 0.56 0.56 96 1011.7
20260510020022 11 151 0.0 3.2 0.00 0.56 0.56 95 1011.7
20260510015518 11 146 0.0 3.2 0.00 0.56 0.56 95 1011.7
20260510015014 11 119 0.0 3.2 0.00 0.56 0.56 95 1011.7
20260510014511 11 110 3.2 3.2 0.00 0.56 0.56 95 1011.6
20260510014008 11 128 1.6 3.2 0.00 0.56 0.56 94 1011.6
20260510013502 11 139 0.0 1.6 0.00 0.56 0.56 94 1011.7
20260510012958 11 124 1.6 3.2 0.00 0.56 0.56 93 1011.5
20260510012453 11 96 0.0 3.2 0.00 0.56 0.56 93 1011.5
20260510011948 11 109 0.0 1.6 0.00 0.56 0.56 92 1011.5
20260510011443 11 120 0.0 3.2 0.00 0.56 0.56 91 1011.5
20260510010939 11 138 0.0 3.2 0.00 0.56 0.56 91 1011.4
20260510010437 11 119 1.6 4.8 0.00 0.56 0.56 91 1011.4
20260510005933 12 109 3.2 4.8 0.00 0.56 0.56 90 1011.4
20260510005429 12 128 3.2 3.2 0.00 0.56 0.56 89 1011.3
20260510004927 12 119 3.2 4.8 0.00 0.56 0.56 88 1011.3
20260510004424 12 128 3.2 3.2 0.00 0.56 0.56 87 1011.2
20260510003922 12 116 0.0 3.2 0.00 0.56 0.56 86 1011.1
20260510003419 12 105 1.6 3.2 0.00 0.56 0.56 86 1011.1
20260510002918 13 76 0.0 1.6 0.00 0.56 0.56 84 1011.1
20260510002415 13 135 0.0 3.2 0.00 0.56 0.56 83 1010.9
20260510001911 13 157 0.0 3.2 0.00 0.56 0.56 82 1010.8
20260510001409 13 149 0.0 3.2 0.00 0.56 0.56 81 1010.7
20260510000906 13 142 0.0 3.2 0.00 0.56 0.56 80 1010.6
20260510000403 14 163 0.0 3.2 0.00 0.56 0.56 79 1010.5
20260509235859 14 142 0.0 3.2 0.00 0.56 0.56 79 1010.7
20260509235356 14 156 3.2 3.2 0.00 0.56 0.56 78 1010.6
20260509234852 15 113 0.0 1.6 0.00 0.56 0.56 76 1010.6
20260509234349 15 131 3.2 4.8 0.00 0.56 0.56 76 1010.6
20260509233848 15 150 4.8 6.4 0.00 0.56 0.56 75 1010.4
20260509233345 15 171 3.2 3.2 0.00 0.56 0.56 73 1010.5
20260509232840 15 186 3.2 4.8 0.00 0.56 0.56 73 1010.6
20260509232338 16 164 0.0 3.2 0.00 0.56 0.56 75 1010.6
20260509231834 16 135 3.2 6.4 0.00 0.56 0.56 73 1010.4
20260509231331 16 169 3.2 6.4 0.00 0.56 0.56 73 1010.5
20260509230829 16 183 0.0 3.2 0.00 0.56 0.56 73 1010.6
20260509230326 16 174 3.2 6.4 0.00 0.56 0.56 75 1010.6
20260509225820 16 120 4.8 4.8 0.00 0.56 0.56 73 1010.6
20260509225318 16 147 4.8 4.8 0.00 0.56 0.56 74 1010.6
20260509224814 16 113 6.4 8.0 0.00 0.56 0.56 74 1010.6
20260509224310 16 181 3.2 4.8 0.00 0.56 0.56 72 1010.5
20260509223807 16 174 1.6 3.2 0.00 0.56 0.56 74 1010.5
20260509223304 15 286 0.0 6.4 0.00 0.56 0.56 75 1010.4
20260509222800 15 101 8.0 9.7 0.00 0.56 0.56 79 1010.6
20260509222256 15 113 6.4 6.4 0.00 0.56 0.56 78 1010.6
20260509221752 15 6 0.0 4.8 0.00 0.56 0.56 77 1010.8
20260509221249 15 253 3.2 4.8 0.00 0.56 0.56 79 1010.8
20260509220744 14 293 0.0 8.0 0.00 0.56 0.56 80 1010.7
20260509220241 14 215 0.0 6.4 0.00 0.56 0.56 81 1010.7
20260509215736 14 318 1.6 6.4 0.00 0.56 0.56 81 1011.2
20260509215233 14 192 0.0 4.8 0.00 0.56 0.56 81 1010.9
20260509214730 14 190 1.6 3.2 0.00 0.56 0.56 81 1010.7
20260509214227 14 244 4.8 6.4 0.00 0.56 0.56 81 1010.7
20260509213724 14 286 3.2 6.4 0.00 0.56 0.56 80 1010.9
20260509213220 14 243 4.8 6.4 0.00 0.56 0.56 81 1010.7
20260509212718 15 172 4.8 8.0 0.00 0.56 0.56 79 1010.8
20260509212214 15 177 6.4 12.9 0.00 0.56 0.56 81 1010.7
20260509211710 14 150 4.8 6.4 0.00 0.56 0.56 83 1010.9
20260509211207 14 199 4.8 4.8 0.00 0.56 0.56 86 1010.8
20260509210704 13 183 6.4 6.4 0.00 0.56 0.56 86 1011.0
20260509210201 13 174 1.6 4.8 0.00 0.56 0.56 87 1011.1
20260509205701 13 237 3.2 8.0 0.00 0.56 0.56 87 1011.1
20260509205200 13 207 1.6 6.4 0.00 0.56 0.56 87 1011.2
20260509204657 13 198 6.4 6.4 0.00 0.56 0.56 87 1011.2
20260509204153 13 358 3.2 4.8 0.00 0.56 0.56 87 1011.3
20260509203649 13 232 9.7 9.7 0.00 0.56 0.56 88 1011.3
20260509203148 13 257 8.0 8.0 0.00 0.56 0.56 87 1011.4
20260509202643 13 301 8.0 9.7 0.00 0.56 0.56 87 1011.4
20260509202138 13 331 3.2 6.4 0.00 0.56 0.56 87 1011.6
20260509201633 13 257 4.8 6.4 0.00 0.56 0.56 87 1011.4
20260509201132 13 194 3.2 4.8 0.00 0.56 0.56 86 1011.4
20260509200627 13 239 4.8 6.4 0.00 0.56 0.56 88 1011.4
20260509200122 13 169 0.0 4.8 0.00 0.56 0.56 87 1011.2
20260509195618 13 263 3.2 4.8 0.00 0.56 0.56 87 1011.4
20260509195113 13 164 3.2 6.4 0.00 0.56 0.56 88 1011.3
20260509194612 13 122 1.6 1.6 0.00 0.56 0.56 89 1011.5
20260509194111 13 133 3.2 3.2 0.00 0.56 0.56 91 1011.5
20260509193606 13 116 1.6 4.8 0.05 0.56 0.56 91 1011.7
20260509193102 13 144 4.8 6.4 0.05 0.56 0.56 92 1011.8
20260509192559 12 137 3.2 4.8 0.00 0.56 0.56 92 1011.9
20260509192054 12 122 1.6 3.2 0.05 0.56 0.56 92 1011.7
20260509191554 12 131 3.2 4.8 0.05 0.56 0.56 92 1011.9
20260509191050 12 110 3.2 6.4 0.05 0.56 0.56 92 1011.9
20260509190548 12 189 6.4 6.4 0.13 0.56 0.56 92 1012.3
20260509190045 12 192 3.2 3.2 0.13 0.53 0.53 92 1012.4
20260509185543 12 141 3.2 3.2 0.05 0.51 0.51 92 1012.4
20260509185039 12 136 1.6 4.8 0.05 0.51 0.51 91 1012.5
20260509184537 12 280 3.2 4.8 0.05 0.51 0.51 90 1012.4
20260509184033 12 148 3.2 4.8 0.05 0.51 0.51 91 1012.6
20260509183528 12 210 0.0 6.4 0.13 0.48 0.48 91 1012.7
20260509183025 12 187 6.4 6.4 0.13 0.48 0.48 90 1012.7
20260509182521 12 192 6.4 6.4 0.13 0.46 0.46 91 1012.8
20260509182018 12 222 4.8 4.8 0.05 0.46 0.46 90 1012.5
20260509181517 12 187 1.6 4.8 0.05 0.46 0.46 91 1012.7
20260509181014 12 195 3.2 9.7 0.05 0.46 0.46 90 1012.8
20260509180509 12 211 3.2 6.4 0.05 0.43 0.43 89 1012.7
20260509180007 12 189 0.0 8.0 0.05 0.43 0.43 90 1012.7
20260509175502 12 194 1.6 6.4 0.05 0.43 0.43 89 1012.7
20260509174959 12 228 4.8 6.4 0.18 0.43 0.43 89 1012.6
20260509174455 12 194 3.2 4.8 0.18 0.43 0.43 89 1012.5
20260509173950 12 247 0.0 4.8 0.13 0.41 0.41 90 1012.7
20260509173451 12 265 4.8 6.4 0.18 0.38 0.38 87 1012.6
20260509172947 12 211 0.0 6.4 0.18 0.38 0.38 88 1012.5
20260509172445 12 276 4.8 9.7 0.30 0.36 0.36 87 1012.3
20260509171940 12 261 4.8 14.5 0.48 0.33 0.33 85 1012.6
20260509171436 12 43 0.0 4.8 0.61 0.30 0.30 86 1012.1
20260509170933 13 252 3.2 9.7 0.48 0.25 0.25 84 1012.4
20260509170428 13 262 12.9 16.1 0.30 0.20 0.20 85 1012.6
20260509165924 13 303 4.8 9.7 0.23 0.18 0.18 86 1012.6
20260509165418 13 231 3.2 11.3 0.13 0.15 0.15 85 1012.9
20260509164914 13 203 1.6 8.0 0.05 0.13 0.13 85 1012.7
20260509164411 13 221 4.8 9.7 0.05 0.13 0.13 84 1012.7
20260509163906 14 205 3.2 6.4 0.13 0.13 0.13 84 1012.6
20260509163404 14 199 4.8 8.0 0.18 0.10 0.10 83 1012.7
20260509162902 14 263 3.2 6.4 0.18 0.10 0.10 81 1012.7
20260509162401 14 244 6.4 14.5 0.13 0.08 0.08 79 1012.7
20260509161857 15 252 6.4 14.5 0.18 0.08 0.08 78 1012.7
20260509161353 15 45 0.0 9.7 0.18 0.05 0.05 78 1012.6
20260509160849 15 209 4.8 4.8 0.05 0.05 0.05 79 1012.8
20260509160345 15 180 6.4 12.9 0.05 0.03 0.03 76 1012.8
20260509155840 15 218 3.2 9.7 0.05 0.03 0.03 75 1012.6
20260509155337 15 211 6.4 14.5 0.00 0.03 0.03 74 1013.0
20260509154834 15 180 4.8 9.7 0.00 0.03 0.03 73 1013.0
20260509154330 15 292 1.6 8.0 0.00 0.03 0.03 73 1012.7
20260509153827 15 214 8.0 11.3 0.00 0.03 0.03 73 1012.9
20260509153324 15 184 9.7 14.5 0.00 0.03 0.03 74 1012.9
20260509152821 14 189 6.4 9.7 0.00 0.03 0.03 74 1012.8
20260509152317 14 108 3.2 14.5 0.00 0.03 0.03 74 1012.9
20260509151815 14 201 3.2 11.3 0.00 0.03 0.03 75 1012.9
20260509151310 14 220 8.0 8.0 0.00 0.03 0.03 74 1012.8
20260509150809 14 185 4.8 8.0 0.00 0.03 0.03 75 1012.8
20260509150306 14 201 9.7 14.5 0.00 0.03 0.03 75 1013.0
20260509145803 14 213 9.7 9.7 0.00 0.03 0.03 74 1012.7
20260509145306 14 176 3.2 6.4 0.00 0.03 0.03 75 1012.6
20260509144800 14 159 1.6 3.2 0.00 0.03 0.03 76 1012.5
20260509144257 14 144 3.2 4.8 0.00 0.03 0.03 75 1012.6
20260509143754 14 54 1.6 6.4 0.00 0.03 0.03 75 1012.7
20260509143251 14 168 3.2 8.0 0.00 0.03 0.03 74 1012.8
20260509142747 14 225 3.2 6.4 0.00 0.03 0.03 74 1012.8
20260509142243 14 174 0.0 6.4 0.00 0.03 0.03 76 1012.9
20260509141739 13 92 6.4 6.4 0.00 0.03 0.03 76 1012.8
20260509141237 13 102 4.8 4.8 0.00 0.03 0.03 77 1012.7
20260509140733 13 148 0.0 3.2 0.00 0.03 0.03 76 1012.8
20260509140230 14 183 3.2 3.2 0.00 0.03 0.03 76 1012.6
20260509135728 13 132 1.6 3.2 0.00 0.03 0.03 76 1012.7
20260509135226 13 73 3.2 3.2 0.00 0.03 0.03 75 1012.6
20260509134722 13 180 1.6 4.8 0.00 0.03 0.03 75 1012.6
20260509134220 13 143 4.8 4.8 0.00 0.03 0.03 76 1012.4
20260509133717 13 181 4.8 6.4 0.00 0.03 0.03 76 1012.5
20260509133213 13 80 0.0 6.4 0.00 0.03 0.03 76 1012.3
20260509132712 13 163 3.2 4.8 0.05 0.03 0.03 78 1012.7
20260509132210 13 154 3.2 6.4 0.05 0.03 0.03 77 1012.6
20260509131706 13 112 4.8 9.7 0.00 0.00 0.00 75 1012.4
20260509131203 13 100 6.4 8.0 0.00 0.00 0.00 76 1012.4
20260509130659 13 105 8.0 9.7 0.00 0.00 0.00 76 1012.3
20260509130155 13 93 4.8 8.0 0.05 0.00 0.00 76 1012.6
20260509125652 13 123 3.2 6.4 0.05 0.00 0.00 76 1012.7
20260509125148 13 104 6.4 8.0 0.00 0.00 0.00 75 1012.4
20260509124645 12 104 6.4 6.4 0.00 0.00 0.00 77 1012.7
20260509124142 12 92 4.8 6.4 0.00 0.00 0.00 75 1012.7
20260509123640 12 189 1.6 4.8 0.00 0.00 0.00 77 1012.7
20260509123137 12 108 6.4 6.4 0.00 0.00 0.00 76 1012.6
20260509122632 12 100 3.2 3.2 0.00 0.00 0.00 76 1012.8
20260509122130 12 92 3.2 4.8 0.00 0.00 0.00 76 1012.7
20260509121626 12 77 4.8 6.4 0.00 0.00 0.00 76 1012.8
20260509121124 12 106 3.2 6.4 0.00 0.00 0.00 76 1013.0
20260509120622 12 84 4.8 6.4 0.00 0.00 0.00 77 1012.8
20260509120120 12 91 3.2 6.4 0.00 0.00 0.00 77 1012.9
20260509115617 12 100 4.8 6.4 0.00 0.00 0.00 79 1012.9
20260509115115 11 94 6.4 9.7 0.00 0.00 0.00 78 1012.7
20260509114612 11 121 9.7 9.7 0.00 0.00 0.00 78 1012.7
20260509114112 11 95 9.7 9.7 0.00 0.00 0.00 79 1012.5
20260509113609 11 115 6.4 9.7 0.00 0.00 0.00 79 1012.4
20260509113106 11 100 9.7 9.7 0.00 0.00 0.00 79 1012.5
20260509112602 11 87 8.0 9.7 0.00 0.00 0.00 79 1012.6
20260509112100 11 79 9.7 11.3 0.00 0.00 0.00 79 1012.5
20260509111557 11 104 4.8 6.4 0.00 0.00 0.00 80 1012.5
20260509111054 11 104 6.4 8.0 0.00 0.00 0.00 80 1012.5
20260509110551 11 62 4.8 6.4 0.00 0.00 0.00 79 1012.7
20260509110048 11 84 4.8 6.4 0.00 0.00 0.00 79 1012.6
20260509105546 11 108 3.2 3.2 0.00 0.00 0.00 79 1012.6
20260509105043 11 134 3.2 6.4 0.00 0.00 0.00 79 1012.4
20260509104540 11 92 4.8 8.0 0.00 0.00 0.00 78 1012.3
20260509104037 11 86 4.8 6.4 0.00 0.00 0.00 78 1012.2
20260509103535 11 93 3.2 3.2 0.00 0.00 0.00 78 1012.2
20260509103033 11 112 3.2 8.0 0.00 0.00 0.00 78 1012.3
20260509102530 11 94 6.4 11.3 0.00 0.00 0.00 78 1012.3
20260509102027 11 125 6.4 12.9 0.00 0.00 0.00 78 1012.6
20260509101523 11 117 9.7 11.3 0.00 0.00 0.00 78 1012.3
20260509101020 11 110 8.0 8.0 0.00 0.00 0.00 78 1012.1
20260509100517 11 63 9.7 11.3 0.00 0.00 0.00 78 1012.1
20260509100014 11 97 4.8 11.3 0.00 0.00 0.00 77 1012.0
20260509095510 11 82 8.0 12.9 0.00 0.00 0.00 77 1012.2